{"data":{"norad_id":52496,"intl_designator":"2022-049AX","name":"STARLINK-3871","alt_names":[],"object_type":"PAYLOAD","status":"ACTIVE","operator":null,"country":"US","launch_date":"2022-05-06","launch_site_code":"AFETR","launch_vehicle":null,"mission":null,"orbit_class":"UNKNOWN","rcs_meters":null,"size_class":null,"mass_kg":null,"dimensions":null,"purposes":["comms"],"wikipedia_slug":null,"has_3d_model":false,"image_url":null,"decayed_at":null,"tle_current":{"epoch":"2026-09-19T14:00:46.438848Z","epoch_age_seconds":142460,"freshness":"FRESH","line1":"1 52496U 22049AX  26262.58387082  .00000448  00000+0  24410-4 0  9992","line2":"2 52496  53.1617 241.6775 0001282  91.7081 268.4068 15.34388951241897","mean_motion":15.34388951,"eccentricity":0.0001282,"inclination_deg":53.1617,"raan_deg":241.6775,"arg_perigee_deg":91.7081,"mean_anomaly_deg":268.4068,"bstar":2.441e-5,"rev_number":24189,"period_min":93.848433870794,"perigee_km":461.85908043174,"apogee_km":463.61308028954,"semimajor_km":6840.8730803606,"source":"CELESTRAK","updated_at":"2026-09-20T09:00:40.056393Z"}}}